| time (UTC) | temp F | wind direction | speed knots | gust knots | rain 1hr in | rain 24hr in | rain mn in | humidity % | barometer mb |
| 20260506023403 | 58 | 261 | 5.2 | 13.9 | 0.00 | 0.27 | 0.27 | 70 | 1005.7 |
| 20260506020405 | 58 | 254 | 7.0 | 12.2 | 0.00 | 0.27 | 0.27 | 75 | 1005.7 |
| 20260506015405 | 59 | 257 | 7.0 | 15.6 | 0.00 | 0.27 | 0.27 | 77 | 1006.1 |
| 20260506014404 | 60 | 253 | 6.1 | 12.2 | 0.00 | 0.27 | 0.27 | 83 | 1005.7 |
| 20260506013405 | 59 | 209 | 0.9 | 7.8 | 0.00 | 0.27 | 0.27 | 85 | 1004.9 |
| 20260506012426 | 59 | 183 | 1.7 | 3.5 | 0.00 | 0.27 | 0.27 | 85 | 1004.6 |
| 20260506011406 | 59 | 183 | 0.0 | 3.5 | 0.00 | 0.27 | 0.27 | 85 | 1004.4 |
| 20260506010426 | 60 | 182 | 0.9 | 3.5 | 0.00 | 0.27 | 0.27 | 84 | 1004.3 |
| 20260506005405 | 60 | 182 | 0.0 | 4.3 | 0.00 | 0.27 | 0.27 | 84 | 1004.0 |
| 20260506004425 | 60 | 175 | 2.6 | 6.1 | 0.00 | 0.27 | 0.27 | 83 | 1004.0 |
| 20260506003405 | 61 | 174 | 0.9 | 7.0 | 0.00 | 0.27 | 0.27 | 82 | 1003.6 |
| 20260506002404 | 61 | 192 | 1.7 | 7.0 | 0.00 | 0.27 | 0.27 | 81 | 1003.5 |
| 20260506001405 | 61 | 178 | 2.6 | 10.4 | 0.00 | 0.27 | 0.27 | 81 | 1003.1 |
| 20260506000405 | 62 | 182 | 2.6 | 8.7 | 0.00 | 0.27 | 0.27 | 80 | 1003.4 |
| 20260505235404 | 63 | 184 | 1.7 | 8.7 | 0.00 | 0.27 | 0.27 | 78 | 1003.4 |
| 20260505234405 | 62 | 181 | 4.3 | 12.2 | 0.00 | 0.27 | 0.27 | 77 | 1003.1 |
| 20260505233404 | 60 | 187 | 3.5 | 7.0 | 0.00 | 0.27 | 0.27 | 82 | 1003.2 |
| 20260505232405 | 60 | 213 | 2.6 | 10.4 | 0.00 | 0.27 | 0.27 | 85 | 1003.3 |
| 20260505231404 | 60 | 201 | 0.9 | 5.2 | 0.00 | 0.27 | 0.27 | 86 | 1003.0 |
| 20260505230405 | 60 | 195 | 1.7 | 5.2 | 0.00 | 0.27 | 0.27 | 85 | 1002.6 |
| 20260505225405 | 61 | 185 | 1.7 | 9.6 | 0.00 | 0.27 | 0.27 | 85 | 1002.6 |
| 20260505224405 | 61 | 181 | 2.6 | 9.6 | 0.00 | 0.27 | 0.27 | 84 | 1002.6 |
| 20260505223406 | 61 | 168 | 4.3 | 8.7 | 0.00 | 0.27 | 0.27 | 84 | 1002.5 |
| 20260505222405 | 61 | 175 | 1.7 | 6.1 | 0.00 | 0.27 | 0.27 | 85 | 1002.7 |
| 20260505221404 | 61 | 183 | 3.5 | 6.1 | 0.00 | 0.27 | 0.27 | 83 | 1002.8 |
| 20260505220405 | 61 | 199 | 1.7 | 8.7 | 0.00 | 0.27 | 0.27 | 82 | 1002.5 |
| 20260505215405 | 60 | 196 | 5.2 | 14.8 | 0.00 | 0.27 | 0.27 | 82 | 1002.6 |
| 20260505214404 | 60 | 208 | 2.6 | 6.1 | 0.00 | 0.27 | 0.27 | 86 | 1002.8 |
| 20260505213404 | 60 | 184 | 0.0 | 7.0 | 0.00 | 0.27 | 0.27 | 85 | 1002.7 |
| 20260505211404 | 59 | 175 | 1.7 | 5.2 | 0.00 | 0.27 | 0.27 | 87 | 1002.2 |
| 20260505210425 | 59 | 161 | 0.0 | 6.1 | 0.00 | 0.27 | 0.27 | 87 | 1001.8 |
| 20260505205405 | 59 | 172 | 1.7 | 6.1 | 0.12 | 0.27 | 0.27 | 86 | 1001.8 |
| 20260505204425 | 59 | 229 | 0.9 | 6.1 | 0.12 | 0.27 | 0.27 | 86 | 1002.0 |
| 20260505203406 | 59 | 225 | 4.3 | 10.4 | 0.12 | 0.27 | 0.27 | 86 | 1001.6 |
| 20260505202405 | 59 | 226 | 6.1 | 16.5 | 0.12 | 0.27 | 0.27 | 84 | 1001.5 |
| 20260505201404 | 60 | 234 | 8.7 | 17.4 | 0.11 | 0.26 | 0.26 | 83 | 1001.9 |
| 20260505200405 | 61 | 246 | 8.7 | 16.5 | 0.02 | 0.17 | 0.17 | 82 | 1002.0 |
| 20260505195404 | 61 | 284 | 2.6 | 7.0 | 0.07 | 0.15 | 0.15 | 89 | 1001.4 |
| 20260505194405 | 61 | 192 | 0.0 | 0.0 | 0.07 | 0.15 | 0.15 | 89 | 1000.9 |
| 20260505193426 | 61 | 191 | 0.0 | 1.7 | 0.07 | 0.15 | 0.15 | 88 | 1000.6 |
| 20260505192404 | 62 | 193 | 0.0 | 0.9 | 0.07 | 0.15 | 0.15 | 88 | 1001.1 |
| 20260505191405 | 62 | 193 | 0.9 | 4.3 | 0.07 | 0.15 | 0.15 | 86 | 1000.5 |
| 20260505190405 | 62 | 204 | 0.0 | 10.4 | 0.01 | 0.09 | 0.09 | 84 | 1000.4 |
| 20260505185405 | 63 | 266 | 4.3 | 8.7 | 0.08 | 0.08 | 0.08 | 84 | 1000.4 |
| 20260505184425 | 62 | 256 | 0.9 | 9.6 | 0.08 | 0.08 | 0.08 | 85 | 1000.0 |
| 20260505183404 | 63 | 258 | 2.6 | 12.2 | 0.07 | 0.07 | 0.07 | 80 | 1000.4 |
| 20260505182404 | 67 | 248 | 5.2 | 13.0 | 0.02 | 0.02 | 0.02 | 68 | 1000.4 |
| 20260505181404 | 72 | 219 | 4.3 | 10.4 | 0.00 | 0.00 | 0.00 | 54 | 999.7 |
| 20260505180405 | 72 | 187 | 3.5 | 10.4 | 0.00 | 0.00 | 0.00 | 53 | 999.3 |
| 20260505175404 | 72 | 182 | 7.0 | 20.0 | 0.00 | 0.00 | 0.00 | 51 | 999.6 |
| 20260505174404 | 73 | 195 | 7.8 | 15.6 | 0.00 | 0.00 | 0.00 | 50 | 999.2 |
| 20260505173405 | 74 | 190 | 10.4 | 20.9 | 0.00 | 0.00 | 0.00 | 48 | 999.3 |
| 20260505172405 | 75 | 182 | 6.1 | 20.0 | 0.00 | 0.00 | 0.00 | 48 | 999.3 |
| 20260505171404 | 75 | 172 | 5.2 | 14.8 | 0.00 | 0.00 | 0.00 | 50 | 999.2 |
| 20260505170404 | 76 | 166 | 9.6 | 20.0 | 0.00 | 0.00 | 0.00 | 47 | 999.3 |
| 20260505165404 | 76 | 186 | 6.1 | 16.5 | 0.00 | 0.00 | 0.00 | 50 | 999.4 |
| 20260505164425 | 75 | 184 | 6.1 | 18.2 | 0.00 | 0.00 | 0.00 | 51 | 999.7 |
| 20260505163404 | 73 | 165 | 7.0 | 17.4 | 0.00 | 0.00 | 0.00 | 51 | 1000.0 |
| 20260505162404 | 73 | 181 | 8.7 | 18.2 | 0.00 | 0.00 | 0.00 | 52 | 1000.5 |
| 20260505161405 | 73 | 187 | 11.3 | 20.0 | 0.00 | 0.00 | 0.00 | 52 | 1000.5 |
| 20260505160426 | 72 | 166 | 7.8 | 17.4 | 0.00 | 0.00 | 0.00 | 53 | 1001.1 |
| 20260505152404 | 71 | 173 | 10.4 | 20.9 | 0.00 | 0.00 | 0.00 | 54 | 1001.6 |
| 20260505151404 | 71 | 166 | 7.0 | 20.9 | 0.00 | 0.00 | 0.00 | 54 | 1001.7 |
| 20260505150425 | 70 | 177 | 7.0 | 17.4 | 0.00 | 0.00 | 0.00 | 55 | 1001.5 |
| 20260505140404 | 63 | 177 | 7.0 | 20.0 | 0.00 | 0.00 | 0.00 | 60 | 1002.2 |
| 20260505124425 | 62 | 187 | 6.1 | 24.3 | 0.00 | 0.05 | 0.00 | 59 | 1002.4 |
| 20260505123404 | 62 | 167 | 8.7 | 18.2 | 0.00 | 0.05 | 0.00 | 58 | 1002.7 |
| 20260505122404 | 61 | 178 | 6.1 | 19.1 | 0.00 | 0.05 | 0.00 | 59 | 1002.6 |
| 20260505121404 | 60 | 184 | 8.7 | 19.1 | 0.00 | 0.05 | 0.00 | 59 | 1002.5 |
| 20260505120404 | 60 | 170 | 3.5 | 14.8 | 0.00 | 0.05 | 0.00 | 60 | 1002.5 |
| 20260505115404 | 60 | 175 | 5.2 | 15.6 | 0.00 | 0.05 | 0.00 | 60 | 1002.5 |
| 20260505114404 | 60 | 182 | 6.1 | 18.2 | 0.00 | 0.05 | 0.00 | 60 | 1002.5 |
| 20260505113404 | 60 | 174 | 3.5 | 19.1 | 0.00 | 0.05 | 0.00 | 60 | 1002.6 |
| 20260505112404 | 60 | 176 | 6.1 | 17.4 | 0.00 | 0.05 | 0.00 | 59 | 1002.6 |
| 20260505111404 | 59 | 171 | 6.1 | 18.2 | 0.00 | 0.05 | 0.00 | 60 | 1002.3 |
| 20260505110404 | 59 | 164 | 5.2 | 19.1 | 0.00 | 0.05 | 0.00 | 61 | 1002.4 |
| 20260505101404 | 58 | 168 | 4.3 | 17.4 | 0.00 | 0.05 | 0.00 | 60 | 1002.2 |
| 20260505100404 | 58 | 172 | 8.7 | 14.8 | 0.00 | 0.05 | 0.00 | 60 | 1002.4 |
| 20260505095404 | 58 | 178 | 7.8 | 16.5 | 0.00 | 0.05 | 0.00 | 60 | 1002.5 |
| 20260505094404 | 58 | 183 | 4.3 | 15.6 | 0.00 | 0.05 | 0.00 | 59 | 1002.5 |
| 20260505093404 | 59 | 177 | 5.2 | 14.8 | 0.00 | 0.05 | 0.00 | 58 | 1002.5 |
| 20260505092404 | 59 | 176 | 5.2 | 18.2 | 0.00 | 0.05 | 0.00 | 58 | 1002.5 |
| 20260505091404 | 59 | 159 | 7.0 | 14.8 | 0.00 | 0.05 | 0.00 | 58 | 1002.4 |
| 20260505090404 | 59 | 172 | 4.3 | 13.0 | 0.00 | 0.05 | 0.00 | 58 | 1002.6 |
| 20260505085425 | 59 | 169 | 4.3 | 13.0 | 0.00 | 0.05 | 0.00 | 58 | 1002.6 |
| 20260505084404 | 59 | 177 | 5.2 | 19.1 | 0.00 | 0.05 | 0.00 | 57 | 1002.8 |
| 20260505083424 | 59 | 146 | 2.6 | 14.8 | 0.00 | 0.05 | 0.00 | 57 | 1002.7 |
| 20260505082404 | 59 | 162 | 7.8 | 18.2 | 0.00 | 0.05 | 0.00 | 57 | 1002.8 |
| 20260505081404 | 59 | 168 | 6.1 | 13.0 | 0.00 | 0.05 | 0.00 | 57 | 1002.8 |
| 20260505080404 | 59 | 171 | 3.5 | 15.6 | 0.00 | 0.05 | 0.00 | 57 | 1002.7 |
| 20260505075404 | 59 | 162 | 5.2 | 15.6 | 0.00 | 0.05 | 0.00 | 56 | 1002.6 |
| 20260505074426 | 59 | 161 | 3.5 | 13.0 | 0.00 | 0.05 | 0.00 | 56 | 1002.4 |
| 20260505073403 | 59 | 167 | 4.3 | 18.2 | 0.00 | 0.05 | 0.00 | 56 | 1002.6 |
| 20260505072404 | 59 | 170 | 6.1 | 15.6 | 0.00 | 0.05 | 0.00 | 56 | 1002.8 |
| 20260505071403 | 59 | 156 | 3.5 | 12.2 | 0.00 | 0.05 | 0.00 | 56 | 1002.7 |
| 20260505070425 | 59 | 163 | 4.3 | 12.2 | 0.00 | 0.05 | 0.00 | 55 | 1002.7 |
| 20260505065425 | 59 | 176 | 5.2 | 18.2 | 0.00 | 0.05 | 0.00 | 55 | 1002.8 |
| 20260505064403 | 59 | 187 | 1.7 | 15.6 | 0.00 | 0.05 | 0.00 | 55 | 1002.8 |
| 20260505063404 | 59 | 167 | 6.1 | 15.6 | 0.00 | 0.05 | 0.00 | 56 | 1002.8 |
| 20260505062403 | 58 | 176 | 7.0 | 13.9 | 0.00 | 0.05 | 0.00 | 55 | 1002.7 |
| 20260505061404 | 59 | 176 | 7.0 | 16.5 | 0.00 | 0.05 | 0.00 | 55 | 1002.6 |
| 20260505060404 | 58 | 178 | 6.1 | 12.2 | 0.00 | 0.05 | 0.00 | 55 | 1002.6 |
| 20260505055404 | 59 | 170 | 4.3 | 11.3 | 0.00 | 0.05 | 0.00 | 55 | 1002.7 |
| 20260505054404 | 58 | 174 | 4.3 | 13.0 | 0.00 | 0.05 | 0.00 | 55 | 1002.7 |
| 20260505053404 | 58 | 164 | 4.3 | 15.6 | 0.00 | 0.05 | 0.00 | 56 | 1002.8 |
| 20260505052403 | 58 | 159 | 4.3 | 9.6 | 0.00 | 0.05 | 0.00 | 57 | 1002.9 |
| 20260505051404 | 58 | 172 | 2.6 | 9.6 | 0.00 | 0.05 | 0.00 | 57 | 1002.9 |
| 20260505050404 | 58 | 190 | 1.7 | 12.2 | 0.00 | 0.05 | 0.00 | 57 | 1003.0 |
| 20260505041403 | 56 | 169 | 3.5 | 9.6 | 0.00 | 0.05 | 0.00 | 61 | 1003.2 |
| 20260505040426 | 55 | 181 | 1.7 | 8.7 | 0.00 | 0.05 | 0.00 | 63 | 1003.3 |
| 20260505035403 | 55 | 167 | 2.6 | 8.7 | 0.00 | 0.05 | 0.05 | 63 | 1003.3 |
| 20260505034404 | 55 | 161 | 1.7 | 6.1 | 0.00 | 0.05 | 0.05 | 63 | 1003.3 |
| 20260505033446 | 55 | 181 | 0.9 | 6.1 | 0.00 | 0.05 | 0.05 | 63 | 1003.3 |
| 20260505032425 | 56 | 150 | 0.9 | 7.0 | 0.00 | 0.05 | 0.05 | 62 | 1003.3 |
| 20260505031403 | 56 | 161 | 0.9 | 7.8 | 0.00 | 0.05 | 0.05 | 61 | 1003.4 |
| 20260505030404 | 56 | 177 | 0.0 | 6.1 | 0.00 | 0.05 | 0.05 | 61 | 1003.5 |
| 20260505025404 | 56 | 168 | 2.6 | 7.8 | 0.00 | 0.05 | 0.05 | 61 | 1003.6 |
| 20260505024424 | 55 | 169 | 1.7 | 7.8 | 0.00 | 0.05 | 0.05 | 63 | 1003.6 |